Wind_Speed
5 5 6 7 8 9 9 10 12 13 14 14 14 15 15 15 15 15 15 15 15 14 15 15 14 14 14 13 13 12 11 11 11 11 10 10 11 11 11 12 12 12 12 12
6 7 7 7 8 9 9 9 11 12 13 13 13 13 14 15 15 15 15 15 15 16 16 15 15 14 13 12 12 12 11 11 11 11 11 11 11 11 11 11 12 12 11 11
7 8 8 8 9 9 9 10 10 11 12 12 13 13 14 14 15 15 15 15 15 15 15 15 15 14 13 12 12 11 11 12 12 11 11 11 11 12 12 11 11 12 12 11
8 9 9 9 9 9 10 10 11 11 11 12 12 13 13 13 13 13 14 14 14 15 14 14 14 13 12 12 11 12 12 12 11 11 11 11 11 11 11 12 12 11 12 12
9 9 9 9 10 10 10 10 10 11 11 12 12 12 13 12 12 13 13 14 14 14 15 14 13 12 12 12 12 11 12 12 11 11 11 11 12 12 11 12 12 12 12 13
9 10 10 10 11 10 10 10 10 10 11 12 12 12 12 12 12 13 13 13 13 14 13 13 13 12 12 11 11 10 11 12 12 12 12 12 13 13 12 12 12 12 13 14
10 10 10 11 11 11 10 10 10 11 12 13 13 12 11 11 11 12 13 13 13 13 12 12 12 12 12 11 11 11 10 11 11 12 12 12 13 12 11 12 12 13 13 12
10 11 12 11 11 11 11 10 10 11 12 12 13 12 12 12 11 12 13 13 12 12 12 12 11 11 11 11 11 11 11 11 11 12 12 12 12 11 11 12 12 13 13 12
11 12 13 12 12 12 12 11 11 12 12 12 12 12 12 12 11 11 11 11 11 11 11 11 10 11 10 10 10 11 11 10 11 12 12 13 12 11 11 11 12 13 13 13
13 13 13 13 13 12 12 12 12 12 13 12 13 12 13 12 12 11 11 11 11 11 11 10 11 11 11 11 10 10 10 10 11 11 12 13 12 11 11 11 12 13 13 14
14 14 14 14 14 14 14 13 13 13 13 13 13 13 13 13 12 12 11 11 11 11 11 11 10 11 11 11 11 11 11 11 11 11 11 11 12 12 12 12 12 12 13 13
15 15 15 15 15 15 15 15 15 14 15 15 15 14 14 13 13 13 12 12 11 11 11 11 12 11 11 11 11 11 11 11 12 11 12 12 12 12 12 12 12 11 11 12
16 16 16 15 16 15 15 15 16 16 16 16 15 15 15 14 14 14 13 12 12 11 11 11 11 11 11 11 12 12 12 12 12 11 12 12 11 11 12 12 12 11 11 12
17 17 16 16 17 17 16 16 16 16 16 16 15 15 15 14 14 14 13 12 12 12 12 12 11 11 11 12 12 12 12 12 12 12 12 11 12 12 13 12 11 12 12 12
18 18 18 18 18 18 17 17 17 17 16 16 15 15 15 15 14 14 13 12 12 12 12 12 11 11 12 12 12 12 12 12 12 11 11 11 12 12 12 11 11 11 11 11
18 18 19 19 19 19 19 18 17 17 17 16 16 16 15 15 15 14 13 13 13 13 12 12 12 12 12 12 12 13 13 12 11 11 11 11 11 11 12 11 11 11 11 11
19 19 20 19 19 20 18 18 18 18 17 17 17 16 16 15 15 14 14 13 13 13 13 13 14 13 13 12 13 13 13 12 11 11 11 11 11 11 11 11 11 11 11 11
21 20 21 21 20 19 19 18 18 18 18 18 18 17 15 15 15 15 14 14 14 14 14 14 14 14 13 13 13 13 13 12 12 12 11 12 11 11 11 11 12 12 12 12
22 22 22 22 21 20 20 19 18 18 18 18 17 16 15 15 15 16 15 15 15 15 15 15 14 15 14 14 13 13 13 13 13 12 12 12 12 12 12 12 11 11 11 11
24 23 23 23 23 22 20 20 19 19 19 18 17 17 16 15 14 16 15 16 17 16 16 16 15 15 15 15 14 14 13 13 13 13 13 13 13 12 12 12 12 12 12 12
26 25 24 24 24 23 22 22 20 20 20 19 18 17 17 16 16 16 16 17 17 18 18 18 17 16 16 16 16 15 15 14 14 15 14 14 13 13 13 13 13 13 13 13
27 27 26 25 25 24 24 23 22 21 21 21 20 19 18 18 17 18 18 18 18 18 18 19 19 18 17 17 17 16 16 16 16 15 15 15 14 14 14 13 13 13 13 14
29 29 28 27 27 26 25 25 24 23 23 22 21 20 20 19 19 19 18 18 18 18 18 19 19 18 18 18 17 17 17 17 16 16 16 15 15 15 15 14 14 14 14 15
29 29 28 28 27 27 27 26 25 24 24 23 22 21 21 21 21 20 20 20 20 19 19 20 19 19 19 18 17 17 17 18 18 18 17 16 16 16 16 15 15 15 15 15
29 29 29 28 28 27 27 27 26 25 25 24 24 23 22 23 23 22 22 21 21 21 21 20 20 20 20 19 19 18 18 19 19 19 19 19 18 17 16 16 16 16 16 16
28 28 28 28 28 28 28 28 27 26 25 25 24 24 24 24 24 24 23 23 23 23 22 22 20 20 20 20 20 19 19 19 20 20 20 19 19 18 18 18 17 17 17 16
Wind_Direction
287 288 283 274 272 271 272 274 275 275 274 273 273 274 276 278 278 277 278 279 280 279 282 278 280 283 287 283 279 277 272 268 263 263 263 260 257 258 256 252 253 257 262 264
289 291 285 283 281 281 283 284 281 277 280 278 277 277 280 281 281 279 279 279 280 280 278 277 278 281 283 280 275 270 268 264 260 261 260 258 258 260 255 253 255 255 264 266
281 282 285 286 286 284 285 285 281 282 287 288 283 281 283 282 280 278 278 281 279 278 278 278 279 278 280 280 277 270 264 263 263 264 261 260 261 260 258 256 255 258 268 271
280 283 285 287 288 288 288 287 287 288 293 294 290 287 286 287 287 284 281 281 283 280 276 277 278 278 280 281 278 269 263 264 264 262 260 260 261 261 261 259 259 260 269 274
282 286 287 287 287 287 289 290 291 290 292 291 291 290 288 289 288 286 282 281 282 279 274 274 276 277 277 277 276 273 267 263 259 260 261 261 261 261 261 259 259 262 266 272
279 284 287 287 287 287 290 292 293 295 299 297 295 293 287 290 291 286 284 283 283 280 274 270 271 272 270 270 270 274 270 264 259 261 264 263 263 263 258 258 259 260 264 268
285 286 288 291 291 290 293 297 299 299 299 300 301 295 291 291 288 285 285 285 282 281 277 272 269 267 265 265 269 270 272 267 264 265 266 265 265 263 259 259 260 260 263 268
282 286 287 288 291 292 295 296 295 296 297 301 302 300 299 296 292 288 286 286 282 279 277 275 268 264 264 265 266 267 269 269 267 266 265 267 268 262 259 262 264 265 267 271
281 281 283 285 289 290 292 294 292 292 295 297 298 302 301 299 298 295 291 287 281 277 277 275 264 261 262 265 265 265 267 271 269 265 266 266 267 263 260 264 266 266 267 270
281 281 281 283 286 289 291 293 293 293 292 293 296 300 299 298 298 296 292 289 280 275 276 271 262 260 262 263 263 265 269 270 268 268 270 267 264 262 266 270 267 267 269 272
281 281 282 283 286 288 290 293 293 292 292 293 295 295 293 294 293 292 290 286 277 272 272 267 262 263 262 263 265 267 269 270 270 272 273 271 267 268 270 271 270 271 273 275
281 280 280 283 285 285 286 290 292 292 293 292 292 293 292 292 292 290 286 280 274 270 268 266 265 262 259 263 266 268 269 272 271 273 276 277 270 269 271 275 274 276 276 274
279 278 281 285 287 286 284 284 285 287 288 288 288 289 290 289 289 287 282 276 271 267 265 264 264 260 258 261 265 270 272 274 272 274 277 277 272 272 277 278 270 272 277 275
278 277 278 280 283 285 284 285 283 283 284 286 285 284 285 285 284 284 278 271 267 263 264 264 262 259 258 260 262 269 273 277 277 276 275 274 274 274 278 276 274 273 276 276
276 278 279 280 280 280 281 282 282 282 283 284 285 284 285 284 282 280 273 267 266 265 264 263 258 256 258 260 263 268 272 277 276 274 274 277 278 274 275 275 274 276 277 278
274 276 278 280 280 278 279 280 280 281 281 282 282 283 282 280 279 275 270 267 265 265 264 262 257 255 258 263 266 269 271 276 274 272 275 278 278 275 275 276 273 274 277 279
273 276 277 278 279 278 278 278 278 278 278 278 280 282 281 277 275 273 268 264 264 264 264 262 259 256 258 263 267 270 270 272 272 271 270 275 277 275 275 277 274 274 275 277
272 273 276 277 278 277 277 276 277 276 277 277 278 280 279 276 273 273 267 261 260 261 264 267 266 265 264 265 266 266 270 268 268 269 272 274 275 275 277 277 275 274 275 275
270 271 273 275 276 277 276 277 278 278 276 275 277 277 276 274 273 271 266 261 260 261 261 263 264 267 267 265 261 262 267 269 268 270 273 275 276 275 275 274 273 274 274 275
268 269 270 273 274 275 275 275 276 278 276 276 277 277 274 272 271 270 268 263 261 260 260 261 261 263 265 265 265 267 266 269 267 267 270 273 274 274 274 273 273 272 273 278
266 267 268 270 271 273 273 273 273 272 272 275 276 275 273 270 269 267 266 262 260 259 258 261 261 261 262 264 265 268 267 268 267 265 267 271 272 271 271 271 271 271 272 276
265 266 267 267 267 269 270 270 270 269 271 273 273 272 271 269 267 266 264 261 260 259 259 260 260 260 261 263 264 266 267 266 267 265 264 265 267 269 268 268 270 270 271 274
263 265 265 265 265 266 267 268 269 269 270 270 270 270 268 268 267 265 263 261 259 257 259 259 259 261 261 261 263 265 265 264 265 265 267 264 265 267 267 269 270 270 271 274
262 262 263 263 262 264 265 267 269 269 268 267 267 266 266 267 266 264 262 262 260 256 257 257 258 261 263 264 266 266 264 262 263 264 265 265 265 267 266 267 269 271 273 273
260 260 260 260 261 262 263 266 267 267 266 265 266 267 267 267 265 263 262 261 259 258 256 257 258 260 261 262 265 265 262 262 262 264 265 267 268 267 264 264 266 268 271 272
260 260 261 261 261 261 263 264 265 265 264 264 265 265 265 265 264 262 261 259 258 258 258 258 258 259 260 260 262 262 263 263 264 266 267 267 267 267 266 265 265 267 270 273
Height
5855 5855 5855 5855 5854 5854 5853 5853 5852 5851 5849 5848 5847 5847 5846 5845 5844 5843 5843 5842 5842 5840 5839 5839 5838 5837 5837 5836 5836 5835 5835 5835 5834 5835 5835 5835 5835 5835 5835 5835 5835 5835 5836 5836
5854 5854 5853 5852 5852 5851 5850 5850 5849 5847 5846 5845 5844 5843 5842 5841 5841 5840 5839 5839 5838 5837 5836 5835 5835 5834 5834 5833 5832 5832 5831 5831 5832 5832 5832 5832 5832 5832 5832 5832 5833 5833 5833 5833
5852 5853 5851 5850 5850 5849 5848 5847 5846 5844 5843 5842 5841 5840 5839 5838 5837 5836 5835 5835 5833 5833 5832 5832 5831 5831 5830 5830 5829 5828 5828 5828 5828 5829 5829 5829 5830 5829 5830 5830 5830 5830 5830 5830
5849 5849 5849 5848 5847 5846 5846 5844 5843 5841 5840 5839 5838 5837 5836 5834 5833 5832 5831 5831 5830 5829 5829 5828 5828 5827 5827 5826 5825 5825 5825 5825 5825 5826 5826 5827 5827 5827 5827 5827 5826 5827 5827 5826
5847 5847 5846 5845 5845 5844 5843 5841 5840 5838 5837 5836 5835 5834 5834 5831 5829 5828 5828 5827 5826 5825 5825 5824 5824 5824 5823 5823 5822 5822 5822 5822 5822 5823 5823 5823 5824 5824 5824 5823 5823 5823 5823 5823
5845 5844 5843 5843 5842 5840 5839 5839 5837 5836 5835 5834 5832 5831 5830 5828 5826 5825 5824 5823 5822 5822 5821 5821 5821 5820 5820 5820 5819 5819 5818 5818 5819 5819 5820 5820 5821 5821 5820 5820 5820 5820 5820 5819
5842 5841 5840 5840 5839 5837 5837 5836 5835 5834 5833 5832 5829 5827 5827 5824 5823 5821 5820 5819 5819 5818 5817 5817 5817 5817 5817 5817 5816 5816 5816 5816 5816 5816 5816 5817 5817 5817 5817 5817 5817 5816 5816 5815
5840 5840 5838 5836 5836 5835 5834 5833 5833 5832 5831 5829 5826 5824 5824 5821 5819 5817 5816 5816 5815 5814 5814 5814 5814 5814 5814 5814 5814 5814 5814 5813 5813 5813 5813 5813 5813 5813 5813 5813 5813 5813 5812 5812
5837 5837 5835 5833 5832 5832 5830 5829 5829 5828 5826 5825 5823 5822 5820 5817 5816 5814 5813 5812 5812 5811 5811 5810 5810 5811 5811 5811 5811 5811 5811 5811 5811 5811 5810 5810 5810 5810 5810 5810 5809 5809 5808 5808
5832 5832 5831 5830 5829 5828 5827 5826 5825 5824 5822 5821 5821 5819 5817 5814 5813 5811 5810 5809 5809 5808 5808 5808 5808 5808 5808 5808 5808 5808 5808 5808 5808 5807 5807 5807 5807 5806 5806 5806 5806 5805 5804 5804
5828 5828 5828 5826 5825 5824 5823 5822 5820 5819 5819 5818 5817 5818 5813 5811 5810 5808 5807 5806 5806 5805 5805 5805 5805 5805 5805 5806 5806 5805 5805 5805 5805 5804 5804 5803 5803 5803 5803 5802 5802 5801 5800 5800
5824 5823 5823 5822 5821 5820 5819 5818 5817 5816 5814 5813 5812 5815 5809 5807 5806 5805 5804 5803 5803 5802 5802 5802 5802 5802 5803 5803 5803 5802 5802 5802 5801 5801 5801 5800 5800 5799 5799 5798 5798 5798 5797 5796
5819 5819 5818 5818 5818 5816 5814 5813 5812 5811 5809 5808 5808 5810 5805 5803 5802 5801 5800 5800 5799 5799 5799 5799 5799 5799 5799 5799 5800 5799 5799 5799 5798 5798 5797 5797 5796 5796 5795 5795 5794 5794 5793 5792
5814 5814 5814 5814 5812 5811 5809 5808 5806 5806 5804 5803 5803 5802 5800 5798 5797 5797 5796 5796 5796 5796 5796 5796 5796 5796 5796 5796 5796 5796 5796 5795 5794 5794 5794 5793 5793 5793 5792 5791 5791 5790 5789 5788
5808 5808 5808 5807 5806 5805 5804 5803 5802 5800 5799 5799 5798 5797 5796 5794 5793 5792 5792 5792 5792 5792 5793 5793 5793 5793 5793 5793 5793 5793 5792 5791 5791 5791 5790 5790 5790 5789 5789 5788 5787 5786 5786 5785
5803 5803 5802 5802 5800 5799 5798 5797 5796 5795 5794 5793 5792 5792 5791 5790 5789 5788 5787 5787 5788 5788 5789 5789 5789 5789 5789 5789 5789 5789 5789 5788 5788 5787 5787 5787 5786 5786 5785 5785 5784 5783 5782 5781
5797 5797 5796 5796 5795 5794 5793 5792 5791 5790 5789 5789 5788 5788 5786 5785 5784 5783 5783 5783 5783 5784 5784 5785 5785 5785 5785 5785 5785 5785 5785 5785 5784 5784 5784 5784 5783 5782 5782 5781 5781 5780 5779 5779
5791 5790 5790 5790 5789 5788 5790 5787 5786 5785 5784 5783 5782 5781 5781 5780 5779 5778 5778 5778 5779 5780 5780 5781 5781 5781 5782 5782 5782 5782 5782 5781 5781 5781 5780 5780 5780 5779 5779 5778 5778 5777 5777 5776
5784 5784 5784 5783 5783 5782 5782 5781 5781 5780 5779 5778 5777 5777 5776 5775 5775 5774 5774 5774 5775 5775 5776 5776 5777 5777 5777 5778 5778 5778 5778 5778 5778 5777 5777 5777 5776 5776 5775 5775 5774 5774 5773 5773
5777 5777 5777 5776 5776 5776 5777 5775 5775 5775 5773 5773 5772 5771 5771 5770 5771 5770 5770 5770 5770 5771 5772 5772 5772 5773 5773 5773 5774 5774 5774 5774 5774 5774 5773 5773 5773 5772 5772 5771 5771 5771 5770 5770
5770 5770 5770 5769 5769 5769 5769 5768 5769 5770 5769 5767 5766 5766 5766 5765 5766 5766 5765 5765 5766 5766 5767 5768 5768 5768 5769 5769 5770 5770 5770 5770 5770 5770 5769 5769 5769 5768 5768 5767 5767 5767 5767 5766
5762 5762 5762 5762 5762 5764 5762 5762 5762 5762 5761 5760 5760 5760 5760 5760 5759 5760 5760 5760 5761 5761 5762 5762 5763 5764 5764 5765 5765 5765 5765 5765 5765 5765 5765 5765 5765 5764 5764 5764 5764 5763 5763 5763
5753 5754 5754 5755 5756 5755 5754 5754 5754 5754 5754 5754 5754 5753 5753 5754 5754 5754 5754 5755 5755 5756 5756 5757 5758 5758 5759 5759 5760 5760 5760 5760 5760 5761 5761 5760 5760 5760 5760 5760 5760 5759 5759 5759
5744 5744 5745 5745 5746 5746 5746 5746 5746 5746 5746 5746 5747 5747 5747 5747 5747 5748 5748 5749 5749 5750 5751 5752 5752 5753 5754 5754 5754 5755 5755 5755 5755 5756 5756 5756 5756 5756 5756 5755 5755 5755 5755 5754
5734 5735 5735 5736 5737 5737 5738 5738 5738 5739 5739 5739 5739 5740 5740 5740 5740 5741 5742 5742 5743 5744 5745 5745 5746 5747 5748 5749 5749 5749 5750 5750 5750 5750 5750 5750 5750 5751 5751 5751 5751 5751 5750 5750
5725 5726 5726 5727 5728 5728 5729 5729 5730 5730 5731 5731 5731 5732 5732 5733 5733 5734 5734 5735 5736 5737 5738 5739 5740 5741 5742 5743 5743 5744 5744 5745 5745 5745 5745 5745 5745 5745 5745 5745 5745 5745 5745 5745